DW3809 Weather Reports


Display with metric or nautical units.
time (UTC)temp
F
wind
direction
speed
MPH
gust
MPH
rain 1hr
in
rain 24hr
in
rain mn
in
humidity
%
barometer
mb
20260507161542 58 258 2.0 5.0 0.00 0.20 0.01 30 1017.1
20260507160101 57 260 1.0 4.0 0.01 0.20 0.01 29 1017.4
20260507154536 56 262 1.0 5.0 0.01 0.20 0.01 29 1017.6
20260507153031 55 296 2.0 5.0 0.01 0.20 0.01 32 1017.7
20260507151529 54 239 1.0 7.0 0.01 0.20 0.01 38 1017.8
20260507150028 53 254 1.0 4.0 0.00 0.19 0.00 38 1018.2
20260507144521 52 246 1.0 3.0 0.00 0.19 0.00 42 1018.2
20260507143019 51 267 0.0 1.0 0.00 0.19 0.00 41 1018.5
20260507141515 49 259 1.0 4.0 0.00 0.19 0.00 43 1018.5
20260507140026 47 119 0.0 2.0 0.00 0.19 0.00 47 1018.7
20260507134506 44 237 0.0 2.0 0.00 0.19 0.00 49 1018.7
20260507133002 42 244 0.0 2.0 0.00 0.19 0.00 52 1018.7
20260507131621 40 234 0.0 3.0 0.00 0.19 0.00 55 1018.6
20260507130100 38 239 0.0 3.0 0.00 0.19 0.00 57 1018.7
20260507124555 37 254 0.0 3.0 0.00 0.19 0.00 58 1018.5
20260507123047 35 236 0.0 3.0 0.00 0.19 0.00 60 1018.5
20260507121546 35 249 0.0 2.0 0.00 0.19 0.00 60 1018.5
20260507120044 34 211 0.0 3.0 0.00 0.19 0.00 62 1018.3
20260507114542 33 104 0.0 1.0 0.00 0.19 0.00 63 1018.4
20260507113103 33 257 0.0 3.0 0.00 0.19 0.00 61 1018.5
20260507111541 33 257 0.0 2.0 0.00 0.19 0.00 63 1018.5
20260507110041 33 235 0.0 1.0 0.00 0.19 0.00 62 1018.6
20260507104542 33 270 0.0 3.0 0.00 0.19 0.00 62 1018.3
20260507103037 33 257 0.0 3.0 0.00 0.19 0.00 63 1018.3
20260507101535 31 140 0.0 2.0 0.00 0.19 0.00 70 1018.5
20260507100042 28 111 0.0 1.0 0.00 0.19 0.00 77 1018.7
20260507094531 29 200 0.0 0.0 0.00 0.19 0.00 76 1018.5
20260507093034 29 165 0.0 0.0 0.00 0.19 0.00 77 1018.6
20260507091533 27 165 0.0 0.0 0.00 0.19 0.00 84 1018.8
20260507090026 26 196 0.0 0.0 0.00 0.19 0.00 86 1019.0
20260507084542 26 151 0.0 1.0 0.00 0.19 0.00 88 1019.0
20260507083025 26 171 0.0 0.0 0.00 0.19 0.00 89 1019.1
20260507081521 26 190 0.0 0.0 0.00 0.19 0.00 91 1019.1
20260507080019 26 191 0.0 0.0 0.00 0.19 0.00 91 1019.4
20260507074518 26 204 0.0 0.0 0.00 0.19 0.00 92 1019.5
20260507073022 26 204 0.0 0.0 0.00 0.19 0.00 92 1019.6
20260507071517 26 211 0.0 1.0 0.00 0.19 0.00 92 1019.6
20260507070019 27 136 0.0 0.0 0.00 0.19 0.00 92 1019.7
20260507064512 28 135 0.0 1.0 0.00 0.19 0.00 92 1019.8
20260507063013 28 203 0.0 1.0 0.00 0.19 0.00 92 1019.7
20260507061507 28 198 0.0 0.0 0.00 0.19 0.00 91 1019.8
20260507060006 28 198 0.0 0.0 0.00 0.19 0.00 91 1019.6
20260507054504 29 197 0.0 0.0 0.00 0.19 0.19 91 1019.5
20260507053005 29 198 0.0 0.0 0.00 0.19 0.19 90 1019.6
20260507051503 29 198 0.0 0.0 0.00 0.19 0.19 90 1019.4
20260507050007 30 198 0.0 0.0 0.00 0.19 0.19 89 1019.4
20260507044501 30 198 0.0 0.0 0.00 0.19 0.19 89 1019.3
20260507043001 30 200 0.0 1.0 0.00 0.19 0.19 88 1019.3
20260507041601 31 199 0.0 0.0 0.00 0.19 0.19 86 1019.3
20260507040111 31 194 0.0 1.0 0.00 0.19 0.19 86 1019.4
20260507034605 31 206 0.0 0.0 0.00 0.19 0.19 85 1019.3
20260507033103 31 149 0.0 0.0 0.00 0.19 0.19 84 1019.3
20260507031558 32 200 0.0 0.0 0.00 0.19 0.19 82 1019.2
20260507030058 32 182 0.0 2.0 0.00 0.19 0.19 81 1018.9
20260507024556 33 199 0.0 1.0 0.00 0.19 0.19 79 1018.8
20260507023055 33 155 0.0 1.0 0.00 0.19 0.19 78 1018.8
20260507021602 34 144 0.0 4.0 0.00 0.19 0.19 76 1018.7
20260507020055 35 218 0.0 4.0 0.00 0.19 0.19 73 1018.6
20260507014557 36 165 0.0 6.0 0.00 0.19 0.19 71 1018.4
20260507013053 38 152 2.0 7.0 0.00 0.19 0.19 68 1018.5
20260507011557 40 153 1.0 6.0 0.00 0.19 0.19 63 1018.4
20260507010052 42 206 1.0 5.0 0.00 0.19 0.19 61 1018.3
20260507004551 42 180 2.0 7.0 0.00 0.21 0.19 60 1018.1
20260507003051 42 144 1.0 4.0 0.01 0.21 0.19 58 1018.1
20260507001551 42 162 0.0 3.0 0.01 0.21 0.19 62 1018.1
20260507000054 43 147 0.0 3.0 0.02 0.21 0.19 58 1018.3
20260506234604 43 238 0.0 3.0 0.02 0.23 0.19 58 1018.4
20260506233048 43 166 0.0 1.0 0.02 0.22 0.18 61 1018.5
20260506231545 41 239 0.0 3.0 0.02 0.22 0.18 64 1018.6
20260506230042 39 163 0.0 2.0 0.02 0.21 0.17 67 1018.7
20260506224546 38 257 1.0 3.0 0.03 0.23 0.17 69 1018.7
20260506223048 38 225 0.0 2.0 0.04 0.22 0.16 69 1018.7
20260506221541 38 261 0.0 5.0 0.07 0.22 0.16 72 1018.8
20260506220041 38 236 1.0 5.0 0.08 0.21 0.15 69 1018.9
20260506214542 39 250 0.0 5.0 0.11 0.21 0.14 67 1018.9
20260506213038 38 221 1.0 5.0 0.10 0.19 0.12 70 1018.9
20260506211534 37 249 2.0 5.0 0.08 0.16 0.09 74 1019.0
20260506210037 37 255 2.0 7.0 0.06 0.14 0.07 76 1019.1
20260506204546 34 240 3.0 5.0 0.03 0.12 0.03 76 1019.1
20260506203032 35 100 1.0 4.0 0.02 0.11 0.02 77 1019.3
20260506201534 35 259 1.0 7.0 0.01 0.10 0.01 77 1019.2
20260506200034 35 243 2.0 5.0 0.01 0.10 0.01 78 1018.9
20260506194530 34 101 1.0 5.0 0.00 0.12 0.00 79 1018.9
20260506193029 34 236 4.0 8.0 0.00 0.12 0.00 80 1019.0
20260506191529 35 259 2.0 5.0 0.00 0.12 0.00 79 1018.9
20260506190029 37 215 2.0 7.0 0.00 0.12 0.00 79 1018.9
20260506184526 35 284 2.0 4.0 0.00 0.15 0.00 78 1018.9
20260506183023 34 258 1.0 3.0 0.00 0.15 0.00 79 1019.2
20260506181526 34 257 1.0 8.0 0.00 0.15 0.00 81 1019.2
20260506180018 33 237 0.0 1.0 0.00 0.15 0.00 87 1019.3
20260506174516 33 238 0.0 2.0 0.00 0.16 0.00 86 1019.1
20260506173015 32 253 0.0 1.0 0.00 0.16 0.00 86 1019.1
20260506171522 32 249 0.0 1.0 0.00 0.16 0.00 84 1019.0
20260506170013 31 218 0.0 1.0 0.00 0.16 0.00 87 1018.7
20260506164511 30 212 0.0 1.0 0.00 0.16 0.00 88 1018.8
20260506163011 30 244 0.0 1.0 0.00 0.16 0.00 87 1018.6